User: anonymous   Login
Location: Kott?ru
(16.6209°N, 80.6208°E)
Time: 00:29:21
(UTC+00:00)
Language:

Cosmos 1939 Rocket - Orbit

View from above orbital plane
View from above orbital plane
View from above satellite
View from above satellite

Ground track
Ground track

The orbit data is extracted from the following two-line orbital elements,

1 19046U 88032B   20336.52682375 +.00001322 +00000-0 +10176-3 0  9999
2 19046 097.3947 350.1151 0036989 358.4517 001.6588 15.02800515762050
Epoch (UTC): 01 December 2020 12:38:37
Eccentricity: 0.0036989
inclination: 97.3947°
perigee height: 532 km
apogee height: 584 km
right ascension of ascending node: 350.1151°
argument of perigee: 358.4517°
revolutions per day: 15.02800515
mean anomaly at epoch: 1.6588°
orbit number at epoch: 76205

The dashed part of the orbit path shows where the satellite is in the earth's shadow,  

DLR